Weather History for Tanger, Morocco

Change the Weather History Date:

Monday, July 15, 2013

  Actual Average Record
Temperature  
Mean Temperature 74 °F -  
Max Temperature 88 °F 82 °F 100 °F (2000)
Min Temperature 61 °F 64 °F 59 °F (2012)
Cooling Degree Days 10    
Growing Degree Days 24 (Base 50)    
Moisture  
Dew Point 61 °F    
Average Humidity 64    
Maximum Humidity 88    
Minimum Humidity 31    
Precipitation  
Precipitation 0.00 in 0.00 in - ()
Sea Level Pressure  
Sea Level Pressure 30.06 in    
Wind  
Wind Speed 6 mph ()    
Max Wind Speed 29 mph    
Max Gust Speed -    
Visibility 3.9 miles    
Events      
Averages and records for this station are not official NWS values.
T = Trace of Precipitation, MM = Missing Value Source: Averaged Metar Reports

Daily Weather History Graph

Daily Weather History Graph

Search for Another Location

Airport:

Trip Planner

Search our weather history database for the weather conditions in past years. The results will help you decide how hot, cold, wet, or windy it might be!

Date:

Astronomy

Jul. 15, 2013 Rise Set
Actual Time 6:19 AM WEST 8:39 PM WEST
Civil Twilight 5:49 AM WEST 9:09 PM WEST
Nautical Twilight 5:13 AM WEST 9:44 PM WEST
Astronomical Twilight 4:34 AM WEST 10:24 PM WEST
Moon 1:07 PM WEST (7/15) No Moon Set
Length of Visible Light 15h 19m
Length of Day
14h 20m
Waxing Crescent, 43% of the Moon is Illuminated
Jul 15
Waxing Crescent
Jul 16
First Quarter
Jul 22
Full
Jul 29
Last Quarter
Aug 6
New

Hourly Weather History & Observations

Time (WEST) Temp. Heat Index Dew Point Humidity Pressure Visibility Wind Dir Wind Speed Gust Speed Precip Events Conditions
12:00 AM 60.8 °F - 57.2 °F 88% 30.09 in 5.0 mi Calm Calm - N/A   Partly Cloudy
1:00 AM 64 °F - 59 °F 79% 30.12 in 5 mi Calm Calm - -   Scattered Clouds
1:00 AM 64.4 °F - 59.0 °F 83% 30.09 in 5.0 mi Calm Calm - N/A   Partly Cloudy
2:00 AM 62.6 °F - 59.0 °F 88% 30.09 in 1.4 mi Calm Calm - N/A   Unknown
2:30 AM 62.6 °F - 59.0 °F 88% 30.09 in 1.1 mi Calm Calm - N/A   Unknown
3:00 AM 62.6 °F - 57.2 °F 82% 30.09 in 1.2 mi Calm Calm - N/A   Unknown
3:30 AM 64.4 °F - 59.0 °F 83% 30.09 in 1.2 mi Calm Calm - N/A   Unknown
4:00 AM 61 °F - 57 °F 82% 30.09 in 1 mi ENE 2.3 mph - -  
4:00 AM 60.8 °F - 57.2 °F 88% 30.06 in 1.2 mi ENE 2.3 mph - N/A   Unknown
4:30 AM 62.6 °F - 59.0 °F 88% 30.06 in 1.2 mi East 3.5 mph - N/A   Unknown
5:00 AM 64.4 °F - 60.8 °F 88% 30.06 in 1.2 mi ESE 4.6 mph - N/A   Unknown
6:00 AM 66.2 °F - 60.8 °F 83% 30.06 in 5.0 mi Variable 2.3 mph - N/A   Scattered Clouds
7:00 AM 67 °F - 61 °F 75% 30.10 in 5 mi SE 6.7 mph - -   Partly Cloudy
7:00 AM 68.0 °F - 62.6 °F 83% 30.09 in 5.0 mi ESE 2.3 mph - N/A   Scattered Clouds
8:00 AM 68.0 °F - 62.6 °F 83% 30.09 in 5.0 mi ESE 2.3 mph - N/A   Scattered Clouds
9:00 AM 73.4 °F - 62.6 °F 69% 30.09 in 5.0 mi Calm Calm - N/A   Scattered Clouds
9:30 AM 73.4 °F - 62.6 °F 69% 30.09 in 3.7 mi Variable 1.2 mph - N/A   Mostly Cloudy
10:00 AM 73 °F - 62 °F 61% 30.12 in 4 mi WNW 13.4 mph - -   Partly Cloudy
10:00 AM 73.4 °F - 62.6 °F 69% 30.09 in 3.7 mi WNW 6.9 mph - N/A   Scattered Clouds
10:30 AM 73.4 °F - 62.6 °F 69% 30.09 in 3.7 mi NW 5.8 mph - N/A   Scattered Clouds
11:00 AM 75.2 °F - 62.6 °F 65% 30.09 in 3.7 mi NW 6.9 mph - N/A   Scattered Clouds
11:30 AM 77.0 °F - 62.6 °F 61% 30.09 in 3.7 mi NW 10.4 mph - N/A   Scattered Clouds
12:00 PM 77.0 °F - 62.6 °F 61% 30.09 in 3.7 mi NNW 11.5 mph - N/A   Scattered Clouds
12:30 PM 78.8 °F - 64.4 °F 61% 30.09 in 5.0 mi NW 11.5 mph - N/A   Scattered Clouds
1:00 PM 81 °F - 64 °F 46% 30.10 in 5 mi NNW 22.4 mph - -   Partly Cloudy
1:00 PM 80.6 °F 82.3 °F 64.4 °F 58% 30.09 in 5.0 mi NNW 11.5 mph - N/A   Scattered Clouds
1:30 PM 82.4 °F 83.9 °F 64.4 °F 54% 30.09 in 5.0 mi NNW 11.5 mph - N/A   Partly Cloudy
2:00 PM 84.2 °F 85.6 °F 64.4 °F 51% 30.06 in 5.0 mi ENE 9.2 mph - N/A   Partly Cloudy
2:30 PM 84.2 °F 85.0 °F 62.6 °F 48% 30.06 in 5.0 mi NNE 10.4 mph - N/A   Partly Cloudy
3:00 PM 84.2 °F 85.0 °F 62.6 °F 48% 30.04 in 5.0 mi ENE 15.0 mph - N/A   Partly Cloudy
3:30 PM 84.2 °F 85.0 °F 62.6 °F 48% 30.04 in 5.0 mi NE 18.4 mph - N/A   Unknown
4:00 PM 87 °F - 61 °F 31% 30.04 in 5 mi NE 16.1 mph - -  
4:00 PM 87.8 °F 87.6 °F 60.8 °F 40% 30.04 in 5.0 mi NE 16.1 mph - N/A   Unknown
4:30 PM 87.8 °F 87.6 °F 60.8 °F 40% 30.04 in - NE 16.1 mph - N/A   Clear
5:00 PM 87.8 °F 87.1 °F 59.0 °F 38% 30.01 in - ENE 19.6 mph - N/A   Clear
5:30 PM 86.0 °F 84.9 °F 57.2 °F 37% 30.01 in - NE 17.3 mph - N/A   Clear
6:00 PM 86.0 °F 84.9 °F 57.2 °F 37% 30.01 in - NE 15.0 mph - N/A   Clear
6:30 PM 84.2 °F 83.5 °F 57.2 °F 40% 30.01 in - ENE 15.0 mph - N/A   Clear
7:00 PM 82 °F - 59 °F 35% 30.01 in 6 mi ENE 29.1 mph - -  
7:00 PM 82.4 °F 82.5 °F 59.0 °F 45% 30.01 in - ENE 15.0 mph - N/A   Clear
7:30 PM 80.6 °F 81.1 °F 59.0 °F 48% 30.01 in - ENE 12.7 mph - N/A   Clear
8:00 PM 77.0 °F - 60.8 °F 57% 30.01 in - ENE 13.8 mph - N/A   Clear
8:30 PM 75.2 °F - 59.0 °F 57% 30.01 in - ENE 12.7 mph - N/A   Clear
9:00 PM 73.4 °F - 59.0 °F 61% 30.01 in - ENE 12.7 mph - N/A   Clear
9:30 PM 73.4 °F - 60.8 °F 65% 30.04 in - ENE 11.5 mph - N/A   Clear
10:00 PM 71 °F - 61 °F 63% 30.05 in 6 mi ENE 13.8 mph - -  
10:00 PM 71.6 °F - 60.8 °F 69% 30.04 in - ENE 13.8 mph - N/A   Clear
10:30 PM 71.6 °F - 60.8 °F 69% 30.04 in - NE 12.7 mph - N/A   Clear
11:00 PM 69.8 °F - 60.8 °F 73% 30.06 in - ENE 11.5 mph - N/A   Clear
11:30 PM 69.8 °F - 62.6 °F 78% 30.06 in - ENE 10.4 mph - N/A   Clear